IRS-P5 (CARTOSAT-1)

Last updated on Fri Sep 11 2026 00:02:43 GMT+0000 (Coordinated Universal Time)

1 28649U 05017A 26252.96509625 .00000766 00000+0 82291-4 0 9995 2 28649 97.5296 272.1869 0002438 109.0729 251.0755 14.91230559156454
UTC large
Height (km)
Speed (km/s)
/
Latitude / Longitude
Inclination (degrees)
Orbital Period (minutes)
Azimuth
Elevation
Range (km)
Doppler Factor

Next 0 passes for location: London (51.5072 / 0.1276)

No passes found over London.
IRS-P5 (CARTOSAT-1)